�������l�o���
Date,Time,MP-1(��Sv/h),MP-2(��Sv/h),MP-3(��Sv/h),MP-4(��Sv/h),MP-5(��Sv/h),MP-6(��Sv/h),MP-7(��Sv/h),����,����(m/s),���J
2021/01/19,00:00,0.178,0.160,0.257,0.243,0.239,0.141,0.085,���쐼,10.0,��
2021/01/19,00:10,0.177,0.160,0.256,0.243,0.240,0.142,0.086,���쐼,11.8,��
2021/01/19,00:20,0.179,0.160,0.257,0.243,0.239,0.141,0.086,���쐼,11.5,��
2021/01/19,00:30,0.178,0.159,0.258,0.245,0.239,0.141,0.086,���쐼,10.1,��
2021/01/19,00:40,0.177,0.160,0.256,0.244,0.239,0.141,0.087,���쐼,12.0,��
2021/01/19,00:50,0.178,0.160,0.258,0.244,0.240,0.142,0.086,���쐼,9.0,��
2021/01/19,01:00,0.178,0.160,0.257,0.243,0.240,0.141,0.085,���쐼,9.2,��
2021/01/19,01:10,0.178,0.160,0.256,0.244,0.239,0.142,0.086,���쐼,10.1,��
2021/01/19,01:20,0.178,0.159,0.258,0.244,0.238,0.142,0.086,���쐼,9.2,��
2021/01/19,01:30,0.178,0.160,0.256,0.243,0.239,0.141,0.086,���쐼,9.8,��
2021/01/19,01:40,0.178,0.160,0.256,0.243,0.239,0.141,0.086,���쐼,7.9,��
2021/01/19,01:50,0.178,0.160,0.256,0.243,0.240,0.142,0.086,���쐼,9.2,��
2021/01/19,02:00,0.178,0.159,0.257,0.243,0.240,0.141,0.085,���쐼,9.2,��
2021/01/19,02:10,0.178,0.160,0.257,0.243,0.240,0.142,0.087,��,8.4,��
2021/01/19,02:20,0.178,0.160,0.257,0.244,0.237,0.142,0.085,��,9.6,��
2021/01/19,02:30,0.178,0.159,0.257,0.242,0.239,0.141,0.086,���쐼,8.2,��
2021/01/19,02:40,0.179,0.160,0.258,0.244,0.238,0.142,0.085,���쐼,10.6,��
2021/01/19,02:50,0.178,0.160,0.257,0.244,0.240,0.142,0.086,���쐼,11.2,��
2021/01/19,03:00,0.178,0.160,0.256,0.245,0.240,0.142,0.086,��,7.7,��
2021/01/19,03:10,0.177,0.160,0.257,0.243,0.239,0.142,0.085,��,7.9,��
2021/01/19,03:20,0.178,0.160,0.257,0.243,0.240,0.142,0.086,��,7.0,��
2021/01/19,03:30,0.178,0.159,0.256,0.244,0.239,0.143,0.087,��,6.8,��
2021/01/19,03:40,0.178,0.162,0.258,0.245,0.240,0.143,0.086,��,7.3,�L
2021/01/19,03:50,0.181,0.163,0.259,0.246,0.242,0.143,0.088,���쐼,5.9,�L
2021/01/19,04:00,0.183,0.163,0.261,0.247,0.241,0.146,0.089,��,5.1,�L
2021/01/19,04:10,0.184,0.166,0.262,0.249,0.245,0.149,0.090,��,4.1,�L
2021/01/19,04:20,0.184,0.166,0.262,0.249,0.245,0.150,0.092,��,4.4,�L
2021/01/19,04:30,0.184,0.167,0.263,0.249,0.245,0.148,0.091,��,8.1,��
2021/01/19,04:40,0.184,0.165,0.263,0.248,0.243,0.148,0.091,��,9.0,��
2021/01/19,04:50,0.183,0.163,0.260,0.249,0.242,0.146,0.089,��,11.1,��
2021/01/19,05:00,0.182,0.164,0.260,0.247,0.241,0.146,0.089,��,13.4,��
2021/01/19,05:10,0.181,0.162,0.260,0.246,0.243,0.145,0.089,��,10.3,��
2021/01/19,05:20,0.180,0.163,0.260,0.245,0.241,0.144,0.088,��,11.7,��
2021/01/19,05:30,0.180,0.162,0.260,0.246,0.242,0.143,0.088,���k��,10.0,��
2021/01/19,05:40,0.181,0.162,0.258,0.244,0.240,0.143,0.087,���k��,10.0,��
2021/01/19,05:50,0.179,0.161,0.258,0.244,0.238,0.143,0.087,��,13.1,��
2021/01/19,06:00,0.179,0.160,0.258,0.243,0.240,0.143,0.087,��,10.4,��
2021/01/19,06:10,0.179,0.159,0.258,0.244,0.239,0.142,0.087,��,12.2,��
2021/01/19,06:20,0.179,0.160,0.256,0.243,0.240,0.142,0.086,���k��,10.4,��
2021/01/19,06:30,0.179,0.160,0.258,0.243,0.239,0.142,0.086,���k��,9.2,��
2021/01/19,06:40,0.178,0.160,0.257,0.244,0.239,0.142,0.086,���k��,9.0,��
2021/01/19,06:50,0.179,0.160,0.258,0.243,0.240,0.141,0.087,���k��,10.9,��
2021/01/19,07:00,0.179,0.160,0.258,0.243,0.238,0.142,0.086,���k��,10.0,��
2021/01/19,07:10,0.179,0.160,0.258,0.244,0.238,0.141,0.086,���k��,11.5,��
2021/01/19,07:20,0.178,0.160,0.256,0.244,0.238,0.141,0.086,���k��,12.3,��
2021/01/19,07:30,0.178,0.159,0.257,0.242,0.239,0.141,0.086,���k��,12.0,��
2021/01/19,07:40,0.179,0.159,0.257,0.243,0.238,0.141,0.086,���k��,8.5,��
2021/01/19,07:50,0.177,0.159,0.256,0.243,0.238,0.141,0.085,���k��,14.3,��
2021/01/19,08:00,0.178,0.160,0.258,0.242,0.239,0.141,0.086,�k��,11.4,��
2021/01/19,08:10,0.178,0.159,0.258,0.244,0.240,0.141,0.086,���k��,10.9,��
2021/01/19,08:20,0.179,0.160,0.257,0.243,0.240,0.142,0.086,�k��,11.5,��
2021/01/19,08:30,0.179,0.161,0.259,0.244,0.239,0.141,0.085,���k��,9.3,��
2021/01/19,08:40,0.178,0.160,0.259,0.243,0.239,0.141,0.086,���k��,5.9,��
2021/01/19,08:50,0.180,0.161,0.259,0.243,0.239,0.141,0.086,���k��,8.1,��
2021/01/19,09:00,0.178,0.160,0.258,0.243,0.239,0.142,0.086,�k��,10.6,��
2021/01/19,09:10,0.178,0.159,0.258,0.243,0.239,0.142,0.087,���k��,11.5,��
2021/01/19,09:20,0.178,0.160,0.258,0.243,0.239,0.142,0.086,���k��,7.6,��
2021/01/19,09:30,0.179,0.159,0.259,0.244,0.239,0.143,0.085,��,8.6,��
2021/01/19,09:40,0.179,0.158,0.258,0.244,0.238,0.141,0.086,�k��,7.1,��
2021/01/19,09:50,0.178,0.160,0.258,0.243,0.239,0.141,0.086,���k��,8.2,��
2021/01/19,10:00,0.178,0.160,0.257,0.243,0.240,0.142,0.086,���k��,9.8,��
2021/01/19,10:10,0.179,0.159,0.258,0.242,0.239,0.141,0.086,���k��,9.2,��
2021/01/19,10:20,0.178,0.158,0.257,0.244,0.239,0.142,0.085,���k��,10.4,��
2021/01/19,10:30,0.178,0.159,0.257,0.243,0.238,0.142,0.086,���k��,9.6,��
2021/01/19,10:40,0.178,0.160,0.258,0.243,0.239,0.142,0.085,��,8.4,��
2021/01/19,10:50,0.178,0.159,0.258,0.243,0.239,0.143,0.086,���k��,7.3,��
2021/01/19,11:00,0.179,0.159,0.259,0.242,0.239,0.142,0.086,���k��,8.4,��
2021/01/19,11:10,0.179,0.160,0.257,0.242,0.240,0.142,0.085,�k��,8.1,��
2021/01/19,11:20,0.178,0.160,0.259,0.243,0.239,0.142,0.085,��,10.0,��
2021/01/19,11:30,0.179,0.159,0.258,0.243,0.239,0.142,0.086,��,7.3,��
2021/01/19,11:40,0.178,0.161,0.258,0.243,0.240,0.142,0.086,��,9.3,��
2021/01/19,11:50,0.178,0.159,0.258,0.243,0.239,0.142,0.086,��,10.6,��
2021/01/19,12:00,0.178,0.159,0.258,0.245,0.241,0.142,0.086,���k��,8.8,��
2021/01/19,12:10,0.178,0.159,0.258,0.244,0.239,0.143,0.086,���k��,7.4,��
2021/01/19,12:20,0.178,0.160,0.259,0.243,0.240,0.142,0.086,�k��,9.5,��
2021/01/19,12:30,0.178,0.159,0.258,0.243,0.240,0.142,0.086,�k��,10.7,��
2021/01/19,12:40,0.177,0.159,0.257,0.244,0.238,0.141,0.085,���k��,11.5,��
2021/01/19,12:50,0.178,0.160,0.257,0.243,0.239,0.141,0.085,���k��,10.4,��
2021/01/19,13:00,0.179,0.161,0.257,0.243,0.240,0.141,0.086,���k��,7.9,��
2021/01/19,13:10,0.178,0.159,0.258,0.244,0.240,0.142,0.085,���k��,11.2,��
2021/01/19,13:20,0.177,0.160,0.259,0.244,0.240,0.142,0.085,��,9.2,��
2021/01/19,13:30,0.177,0.159,0.259,0.243,0.240,0.142,0.085,��,11.5,��
2021/01/19,13:40,0.179,0.160,0.258,0.244,0.240,0.142,0.085,���k��,14.0,��
2021/01/19,13:50,0.178,0.159,0.258,0.241,0.239,0.142,0.086,���k��,11.7,��
2021/01/19,14:00,0.177,0.159,0.259,0.244,0.239,0.141,0.085,��,13.4,��
2021/01/19,14:10,0.179,0.160,0.259,0.243,0.241,0.143,0.086,���k��,10.7,��
2021/01/19,14:20,0.180,0.160,0.260,0.244,0.240,0.142,0.085,���k��,12.0,��
2021/01/19,14:30,0.179,0.160,0.259,0.246,0.239,0.142,0.085,��,9.0,��
2021/01/19,14:40,0.178,0.160,0.260,0.245,0.240,0.142,0.086,���k��,10.3,��
2021/01/19,14:50,0.180,0.160,0.261,0.245,0.239,0.141,0.086,���k��,9.2,��
2021/01/19,15:00,0.179,0.160,0.260,0.244,0.240,0.142,0.086,���k��,10.7,��
2021/01/19,15:10,0.179,0.160,0.259,0.244,0.240,0.141,0.086,��,10.1,��
2021/01/19,15:20,0.179,0.160,0.259,0.244,0.240,0.142,0.086,���k��,7.9,��
2021/01/19,15:30,0.179,0.159,0.258,0.244,0.240,0.142,0.086,���k��,8.9,��
2021/01/19,15:40,0.178,0.160,0.259,0.245,0.241,0.142,0.086,���k��,4.7,��
2021/01/19,15:50,0.178,0.160,0.258,0.245,0.239,0.142,0.086,���k��,5.1,��
2021/01/19,16:00,0.179,0.159,0.260,0.245,0.240,0.141,0.086,���k��,6.5,��
2021/01/19,16:10,0.179,0.160,0.259,0.244,0.240,0.142,0.086,�k��,5.6,��
2021/01/19,16:20,0.179,0.160,0.259,0.244,0.240,0.142,0.086,���k��,5.1,��
2021/01/19,16:30,0.179,0.160,0.259,0.245,0.240,0.142,0.085,�k��,4.3,��
2021/01/19,16:40,0.179,0.161,0.259,0.243,0.239,0.141,0.086,�k��,4.4,��
2021/01/19,16:50,0.178,0.161,0.257,0.243,0.240,0.142,0.086,�k��,3.4,��
2021/01/19,17:00,0.179,0.160,0.258,0.243,0.239,0.142,0.085,�k�k��,4.7,��
2021/01/19,17:10,0.179,0.160,0.258,0.243,0.239,0.141,0.086,�k��,3.3,��
2021/01/19,17:20,0.179,0.160,0.259,0.244,0.240,0.141,0.086,�k�k��,4.2,��
2021/01/19,17:30,0.178,0.160,0.259,0.245,0.240,0.142,0.086,�k�k��,2.7,��
2021/01/19,17:40,0.179,0.159,0.258,0.243,0.240,0.142,0.086,�k��,5.2,��
2021/01/19,17:50,0.177,0.160,0.258,0.243,0.239,0.141,0.086,�k��,3.1,��
2021/01/19,18:00,0.177,0.160,0.258,0.244,0.239,0.141,0.085,�k��,4.5,��
2021/01/19,18:10,0.178,0.160,0.258,0.244,0.239,0.142,0.086,�k��,3.6,��
2021/01/19,18:20,0.178,0.160,0.258,0.243,0.238,0.141,0.085,�k��,2.8,��
2021/01/19,18:30,0.178,0.160,0.258,0.243,0.239,0.141,0.085,�k�k��,3.8,��
2021/01/19,18:40,0.178,0.159,0.258,0.244,0.239,0.141,0.086,�k��,3.1,��
2021/01/19,18:50,0.178,0.159,0.258,0.243,0.239,0.141,0.086,�k�k��,1.5,��
2021/01/19,19:00,0.178,0.160,0.258,0.244,0.239,0.140,0.085,�k�k��,2.7,��
2021/01/19,19:10,0.177,0.161,0.257,0.242,0.240,0.141,0.085,�k,3.2,��
2021/01/19,19:20,0.178,0.159,0.257,0.244,0.239,0.141,0.086,�k�k��,2.8,��
2021/01/19,19:30,0.179,0.160,0.257,0.245,0.238,0.141,0.086,�k��,1.9,��
2021/01/19,19:40,0.178,0.159,0.257,0.243,0.240,0.141,0.087,�k,3.4,��
2021/01/19,19:50,0.177,0.160,0.258,0.243,0.240,0.141,0.086,�k��,1.3,��
2021/01/19,20:00,0.177,0.160,0.258,0.243,0.238,0.140,0.085,�k,1.1,��
2021/01/19,20:10,0.178,0.160,0.257,0.244,0.239,0.142,0.085,�k�k��,1.1,��
2021/01/19,20:20,0.177,0.159,0.258,0.244,0.240,0.141,0.086,�k�k��,2.2,��
2021/01/19,20:30,0.178,0.160,0.258,0.244,0.239,0.141,0.086,�k,1.9,��
2021/01/19,20:40,0.178,0.160,0.259,0.243,0.239,0.141,0.086,���쐼,1.1,��
2021/01/19,20:50,0.177,0.159,0.257,0.244,0.239,0.140,0.085,���k��,1.7,��
2021/01/19,21:00,0.178,0.159,0.257,0.244,0.239,0.141,0.085,�k��,1.1,��
2021/01/19,21:10,0.178,0.160,0.257,0.243,0.240,0.141,0.086,�k,0.7,��
2021/01/19,21:20,0.178,0.160,0.258,0.244,0.240,0.140,0.085,��,0.9,��
2021/01/19,21:30,0.178,0.160,0.257,0.243,0.239,0.142,0.086,-,CALM,��
2021/01/19,21:40,0.178,0.160,0.257,0.244,0.238,0.141,0.086,�k��,1.4,��
2021/01/19,21:50,0.177,0.159,0.257,0.244,0.239,0.141,0.086,���k��,2.9,��
2021/01/19,22:00,0.178,0.159,0.257,0.243,0.239,0.141,0.085,�k��,4.1,��
2021/01/19,22:10,0.178,0.160,0.259,0.243,0.239,0.141,0.086,�k��,4.6,��
2021/01/19,22:20,0.177,0.159,0.258,0.244,0.240,0.141,0.084,�k�k��,3.7,��
2021/01/19,22:30,0.178,0.159,0.258,0.245,0.238,0.141,0.086,�k�k��,2.0,��
2021/01/19,22:40,0.178,0.159,0.257,0.244,0.238,0.141,0.085,�k��,7.0,��
2021/01/19,22:50,0.178,0.159,0.258,0.244,0.238,0.141,0.085,�k�k��,4.2,��
2021/01/19,23:00,0.178,0.160,0.255,0.243,0.240,0.141,0.085,�k�k��,4.9,��
2021/01/19,23:10,0.178,0.160,0.258,0.243,0.240,0.141,0.085,�k��,4.6,��
2021/01/19,23:20,0.178,0.160,0.257,0.244,0.240,0.141,0.086,�k��,5.7,��
2021/01/19,23:30,0.178,0.160,0.257,0.244,0.238,0.141,0.085,�k��,3.9,��
2021/01/19,23:40,0.179,0.159,0.257,0.243,0.238,0.141,0.086,�k��,3.3,��
2021/01/19,23:50,0.177,0.161,0.258,0.243,0.238,0.141,0.086,�k��,3.5,��
